Probability
0 0 0 0 0 0 0 0 0 0 0 0 0 0 0 0 0 0 0 10 19 19 23 13 16 23 16 13 16 19 16 13 13 10 10 10 13 6 6 16 10 16 16
0 0 0 0 0 0 0 0 0 0 0 0 0 0 0 0 0 0 0 3 16 16 16 13 19 19 23 16 19 13 16 16 10 6 3 10 10 10 10 6 6 10 6
0 0 0 0 0 0 0 0 0 0 0 0 0 0 0 0 0 0 0 0 0 6 16 13 10 13 13 13 10 13 13 6 6 6 10 10 10 6 6 10 6 6 10
0 0 0 0 0 0 0 0 0 0 0 0 0 0 0 0 0 0 0 0 0 0 0 6 10 16 6 6 13 13 13 6 6 6 6 10 10 10 10 6 10 10 6
0 0 0 0 0 0 0 0 0 0 0 0 0 0 0 0 0 0 0 0 0 0 0 0 3 13 13 3 6 6 6 6 10 6 6 10 10 10 13 13 13 6 3
0 0 0 0 0 0 0 0 0 0 0 0 0 0 0 0 0 0 0 0 0 0 0 0 0 3 6 10 3 3 6 13 6 6 3 3 10 13 13 10 10 10 6
0 0 0 0 0 0 0 0 0 0 0 0 0 0 0 0 0 0 0 0 0 0 0 0 0 0 0 6 3 3 3 10 10 6 0 3 3 6 6 10 10 6 3
0 0 0 0 0 0 0 0 0 0 0 0 0 0 0 0 0 0 0 0 0 0 0 0 0 0 0 0 0 0 0 0 3 3 3 0 6 13 10 10 10 10 6
0 0 0 0 0 0 0 0 0 0 0 0 0 0 0 0 0 0 0 0 0 0 0 0 0 0 0 0 0 0 0 3 3 3 3 6 6 6 10 6 13 10 6
0 0 0 0 0 0 0 0 0 0 0 0 0 0 0 0 0 0 0 0 0 0 0 0 0 0 0 0 3 3 3 3 3 6 6 6 6 6 6 6 3 10 10
0 0 0 0 0 0 0 0 0 0 0 0 0 0 0 0 0 0 0 0 0 0 0 0 0 0 0 0 0 3 3 3 3 3 6 6 6 6 6 6 3 6 6
0 0 0 0 0 0 0 0 0 0 0 0 0 0 0 0 0 0 0 0 0 0 0 0 0 0 0 0 3 3 3 3 3 3 3 6 6 6 10 10 3 6 3
0 0 0 0 0 0 0 0 0 0 0 0 0 0 0 0 0 0 0 0 0 0 0 0 0 0 0 0 0 0 0 0 3 3 3 3 3 10 6 3 3 6 6
0 0 0 0 0 0 0 0 0 0 0 0 0 0 0 0 0 0 0 0 0 0 0 0 0 0 0 0 0 0 0 0 0 0 0 3 3 3 3 3 3 3 3
0 0 0 0 0 0 0 0 0 0 0 0 0 0 0 0 0 0 0 0 0 0 0 0 0 0 0 0 0 0 0 0 0 0 0 0 0 0 3 3 6 6 6
0 0 0 0 0 0 0 0 0 0 0 0 0 0 0 0 0 0 0 0 0 0 0 0 0 0 0 0 0 0 0 0 0 0 0 0 0 0 0 3 3 3 6
0 0 0 0 0 0 0 0 0 0 0 0 0 0 0 0 0 0 0 0 0 0 0 0 0 0 0 0 0 0 0 0 0 0 0 0 0 0 0 0 0 0 0
0 0 0 0 0 0 0 0 0 0 0 0 0 0 0 0 0 0 0 0 0 0 0 0 0 0 0 0 0 0 0 0 0 0 0 0 0 0 0 0 0 0 0
0 0 0 0 0 0 0 0 0 0 0 0 0 0 0 0 0 0 0 0 0 0 0 0 0 0 0 0 0 0 0 0 0 0 0 0 0 0 0 0 0 0 0
0 0 0 0 0 0 0 0 0 0 0 0 0 0 0 0 0 0 0 0 0 0 0 0 0 0 0 0 0 0 0 0 0 0 0 0 0 0 0 0 0 0 0
0 0 0 0 0 0 0 0 0 0 0 0 0 0 0 0 0 0 0 0 0 0 0 0 0 0 0 0 0 0 0 0 0 0 0 0 0 0 0 0 0 0 0
0 0 0 0 0 0 0 0 0 0 0 0 0 0 0 0 0 0 0 0 0 0 0 0 0 0 0 0 0 0 0 0 0 0 0 0 0 0 0 0 0 0 0
0 0 0 0 0 0 0 0 0 0 0 0 0 0 0 0 0 0 0 0 0 0 0 0 0 0 0 0 0 0 0 0 0 0 0 0 0 0 0 0 0 0 0
0 0 0 0 0 0 0 0 0 0 0 0 0 0 0 0 0 0 0 0 0 0 0 0 0 0 0 0 0 0 0 0 0 0 0 0 0 0 0 0 0 0 0
0 0 0 0 0 0 0 0 0 0 0 0 0 0 0 0 0 0 0 0 0 0 0 0 0 0 0 0 0 0 0 0 0 0 0 0 0 0 0 0 0 0 0
3 0 0 0 0 0 0 0 0 0 0 0 0 0 0 0 0 0 0 0 0 0 0 0 0 0 0 0 0 0 0 0 0 0 0 0 0 0 0 0 0 0 0
Height
5854 5853 5853 5852 5852 5851 5850 5850 5849 5848 5847 5846 5846 5845 5844 5844 5844 5843 5843 5843 5843 5842 5842 5842 5842 5842 5842 5842 5843 5843 5843 5843 5844 5844 5844 5844 5844 5844 5845 5845 5846 5846 5847
5852 5851 5850 5850 5849 5848 5848 5847 5846 5845 5844 5843 5843 5842 5841 5841 5840 5840 5839 5839 5839 5839 5839 5839 5838 5839 5838 5839 5839 5839 5839 5840 5840 5840 5841 5841 5841 5841 5842 5842 5843 5843 5844
5849 5849 5848 5847 5846 5845 5844 5843 5843 5842 5841 5840 5839 5838 5838 5837 5837 5836 5836 5836 5835 5835 5835 5835 5835 5835 5834 5834 5834 5835 5836 5836 5837 5837 5837 5838 5838 5838 5839 5839 5840 5840 5841
5847 5846 5845 5844 5843 5842 5841 5840 5839 5838 5837 5837 5836 5835 5834 5833 5833 5832 5832 5831 5831 5831 5831 5831 5831 5831 5831 5830 5831 5831 5832 5833 5833 5834 5834 5834 5835 5835 5835 5836 5836 5837 5837
5844 5843 5842 5841 5840 5839 5838 5836 5835 5834 5833 5832 5831 5831 5830 5829 5828 5828 5827 5827 5827 5827 5827 5827 5827 5827 5827 5827 5828 5828 5828 5829 5829 5830 5830 5831 5831 5831 5832 5832 5833 5833 5834
5841 5840 5839 5837 5836 5835 5834 5832 5831 5830 5828 5827 5827 5826 5825 5824 5824 5823 5823 5823 5823 5823 5822 5823 5823 5823 5823 5823 5824 5824 5825 5825 5825 5826 5826 5827 5827 5827 5828 5828 5829 5830 5830
5837 5836 5835 5833 5832 5830 5829 5827 5826 5824 5823 5822 5821 5820 5820 5819 5819 5819 5818 5818 5818 5818 5818 5818 5818 5819 5819 5819 5820 5820 5820 5821 5821 5822 5822 5823 5823 5823 5824 5824 5825 5826 5826
5833 5832 5831 5829 5827 5825 5823 5822 5820 5818 5817 5815 5815 5814 5814 5814 5813 5813 5814 5813 5813 5814 5814 5814 5814 5814 5815 5815 5815 5816 5816 5817 5817 5817 5818 5818 5819 5819 5820 5820 5821 5821 5822
5829 5828 5826 5824 5822 5820 5818 5816 5814 5812 5810 5809 5808 5808 5808 5808 5808 5808 5808 5808 5808 5809 5809 5809 5809 5810 5810 5811 5811 5811 5811 5812 5812 5813 5813 5814 5814 5815 5815 5816 5816 5817 5817
5825 5823 5821 5819 5817 5815 5813 5810 5808 5806 5804 5802 5801 5800 5800 5800 5801 5802 5802 5802 5803 5803 5804 5804 5804 5805 5805 5806 5806 5807 5807 5807 5808 5808 5808 5809 5809 5810 5810 5811 5811 5811 5811
5820 5818 5816 5814 5812 5810 5808 5805 5803 5800 5798 5797 5795 5794 5793 5793 5794 5795 5796 5797 5797 5798 5798 5799 5799 5800 5800 5801 5801 5802 5802 5802 5803 5803 5803 5804 5804 5805 5805 5805 5806 5806 5806
5815 5813 5811 5809 5807 5805 5803 5800 5798 5795 5793 5791 5789 5787 5787 5786 5787 5788 5790 5790 5791 5792 5792 5793 5794 5794 5795 5795 5796 5796 5797 5797 5798 5798 5798 5798 5799 5799 5799 5800 5800 5800 5800
5810 5808 5806 5804 5802 5799 5797 5794 5792 5789 5787 5785 5782 5781 5780 5780 5780 5781 5782 5783 5785 5786 5786 5787 5787 5788 5789 5789 5790 5790 5791 5791 5792 5792 5793 5793 5793 5793 5794 5794 5794 5795 5795
5804 5802 5800 5798 5796 5794 5791 5789 5786 5784 5781 5779 5777 5775 5774 5774 5774 5774 5775 5776 5778 5779 5780 5780 5781 5782 5782 5783 5784 5784 5785 5785 5786 5786 5786 5787 5787 5787 5788 5788 5788 5789 5789
5798 5796 5794 5792 5790 5788 5785 5783 5780 5778 5775 5773 5771 5769 5768 5768 5767 5767 5767 5768 5770 5772 5773 5774 5774 5775 5775 5776 5777 5778 5778 5779 5779 5779 5779 5780 5780 5781 5781 5782 5782 5782 5783
5792 5790 5788 5785 5783 5781 5779 5776 5774 5771 5769 5767 5765 5763 5762 5761 5760 5760 5760 5761 5762 5763 5765 5767 5767 5768 5768 5769 5770 5770 5771 5771 5771 5772 5772 5773 5774 5774 5774 5775 5775 5775 5776
5785 5783 5781 5779 5776 5774 5771 5769 5767 5764 5762 5760 5758 5756 5755 5754 5753 5753 5753 5754 5754 5755 5757 5759 5759 5760 5761 5761 5762 5763 5763 5764 5764 5764 5765 5766 5766 5767 5767 5767 5768 5768 5769
5778 5776 5773 5771 5769 5767 5764 5762 5759 5757 5754 5752 5751 5749 5748 5747 5746 5746 5745 5746 5746 5747 5748 5749 5751 5752 5752 5753 5754 5755 5755 5756 5756 5757 5757 5758 5758 5759 5759 5759 5760 5760 5761
5770 5768 5765 5763 5761 5759 5756 5754 5752 5749 5747 5745 5743 5742 5740 5739 5739 5737 5737 5737 5738 5739 5739 5741 5742 5743 5744 5744 5745 5746 5747 5748 5748 5748 5749 5749 5750 5750 5751 5751 5751 5752 5753
5762 5760 5757 5755 5753 5751 5749 5746 5744 5742 5740 5737 5736 5734 5733 5731 5730 5729 5728 5729 5729 5730 5730 5731 5733 5734 5735 5735 5736 5737 5738 5739 5739 5739 5739 5740 5741 5741 5742 5742 5743 5743 5744
5754 5751 5749 5747 5744 5742 5740 5738 5736 5734 5732 5730 5727 5726 5724 5723 5722 5720 5720 5720 5720 5720 5721 5722 5723 5724 5725 5726 5727 5728 5729 5729 5730 5730 5730 5731 5732 5732 5732 5733 5733 5734 5735
5745 5743 5740 5738 5736 5733 5731 5729 5727 5725 5723 5721 5719 5717 5715 5714 5713 5712 5711 5711 5711 5711 5712 5712 5713 5714 5715 5716 5716 5717 5718 5720 5721 5722 5721 5721 5721 5723 5723 5724 5724 5725 5726
5736 5733 5731 5729 5726 5724 5722 5720 5717 5716 5714 5712 5710 5708 5707 5705 5704 5703 5702 5702 5701 5701 5702 5703 5703 5704 5705 5705 5706 5707 5708 5709 5710 5711 5711 5711 5711 5712 5713 5714 5715 5716 5718
5726 5724 5722 5719 5717 5715 5712 5710 5708 5706 5704 5702 5700 5698 5697 5696 5694 5693 5693 5692 5692 5692 5692 5692 5693 5694 5694 5694 5695 5696 5697 5698 5699 5699 5700 5702 5702 5702 5703 5705 5706 5707 5708
5716 5714 5712 5710 5708 5706 5703 5701 5699 5697 5695 5693 5690 5688 5687 5685 5684 5683 5683 5682 5682 5682 5681 5682 5682 5683 5683 5684 5684 5685 5686 5687 5688 5689 5690 5691 5692 5693 5693 5695 5696 5697 5699
5706 5704 5703 5700 5698 5696 5694 5691 5689 5687 5685 5683 5681 5678 5676 5675 5673 5672 5671 5671 5671 5671 5671 5671 5671 5672 5672 5673 5673 5674 5675 5677 5678 5679 5680 5681 5682 5683 5684 5685 5686 5687 5689
Wind_Speed
8 9 9 10 10 10 10 11 12 12 12 13 13 13 13 14 14 14 14 14 14 13 13 13 14 14 14 14 13 13 13 12 12 11 12 11 10 10 11 11 10 10 10
10 10 11 11 11 11 11 12 12 12 12 12 12 13 14 15 15 15 15 15 14 15 15 15 15 14 15 14 14 14 13 13 12 12 12 11 11 11 12 12 12 11 11
10 11 11 11 12 12 13 13 13 13 13 13 13 14 14 15 15 16 16 16 15 15 15 15 16 15 15 15 14 14 14 14 13 13 13 12 12 12 12 12 12 12 12
11 12 12 13 13 14 14 14 14 14 14 15 15 15 15 15 15 16 16 16 16 16 16 16 15 15 15 14 14 15 15 14 14 14 14 14 13 13 13 13 13 13 13
13 13 14 14 15 15 15 15 16 16 16 16 16 16 16 15 16 16 16 16 17 17 16 16 15 15 15 15 14 15 15 15 15 14 14 14 14 14 14 15 14 14 14
14 15 16 16 16 16 17 17 17 18 18 18 17 17 17 16 16 16 16 16 17 17 17 16 15 15 16 16 15 15 16 16 16 15 15 15 14 15 15 15 15 15 15
16 17 17 18 18 18 18 19 19 19 19 19 19 19 18 18 18 17 17 17 17 17 17 17 16 15 16 16 17 17 16 16 16 16 15 15 15 14 14 14 15 16 16
17 18 18 19 19 19 20 20 20 21 21 21 21 20 20 20 19 18 18 18 18 18 18 18 17 17 16 16 16 17 17 17 16 16 16 15 14 14 15 15 15 16 17
18 19 20 20 19 19 20 20 21 21 21 21 21 21 21 21 20 19 18 18 19 19 19 18 18 17 17 17 17 17 17 17 16 16 16 16 16 16 16 16 16 16 16
18 19 20 20 20 20 20 20 20 20 20 20 21 21 21 20 20 20 19 19 19 19 19 19 18 19 18 17 17 17 17 18 18 17 17 16 16 17 17 16 16 16 16
19 19 20 20 20 20 21 21 21 21 20 20 20 20 20 21 21 20 20 20 20 20 20 20 19 19 19 19 18 18 18 18 18 18 17 18 17 17 17 17 17 16 17
20 20 20 20 21 21 21 21 22 22 22 22 21 22 22 22 22 21 20 21 21 21 22 22 21 21 21 20 20 20 20 20 19 19 19 19 19 18 17 17 17 17 18
20 21 21 22 22 22 22 22 22 22 23 23 23 23 22 22 22 21 22 22 22 22 22 23 23 22 22 22 21 21 21 21 21 21 21 20 20 20 19 18 18 18 19
22 22 22 23 23 24 24 24 24 24 24 23 23 23 23 23 22 23 22 22 23 23 23 23 23 24 24 23 23 23 22 22 22 23 22 21 21 21 21 20 20 20 20
24 23 23 24 24 25 25 25 25 24 24 24 24 23 23 24 24 24 24 24 24 23 23 23 24 25 25 24 25 24 24 23 24 24 23 23 22 22 22 22 22 22 22
25 24 25 25 26 26 26 26 26 26 26 26 26 26 25 26 26 25 25 24 25 25 24 25 25 26 26 27 27 26 25 25 25 25 24 24 23 23 23 23 24 24 23
26 25 26 27 27 27 27 27 27 28 27 27 26 26 26 27 28 28 27 26 26 26 26 26 27 27 28 28 27 27 27 26 26 26 26 25 25 25 24 24 25 25 25
27 27 28 28 28 28 28 28 28 27 27 27 27 27 27 27 29 29 29 28 28 28 28 27 27 28 28 28 28 28 27 27 27 27 27 26 26 26 26 26 27 27 27
29 29 29 28 28 28 28 28 28 28 28 28 28 28 29 29 30 30 30 29 29 29 29 29 28 28 28 28 29 29 28 28 28 28 28 28 28 27 26 26 27 27 28
30 30 30 30 29 29 29 29 29 29 29 29 29 29 29 30 30 30 29 29 29 30 31 31 31 30 29 29 30 30 30 30 30 29 29 29 28 28 27 27 28 28 28
31 31 31 31 30 30 30 30 30 30 30 30 30 30 29 30 30 30 30 29 30 30 31 31 31 31 30 30 30 31 31 31 30 30 30 30 30 30 29 28 28 28 28
32 32 32 31 31 31 31 31 31 31 31 31 31 31 30 30 31 30 30 30 31 31 31 32 32 32 32 31 31 31 31 31 30 30 30 30 30 30 29 28 28 29 29
33 33 33 33 32 32 32 32 33 32 32 31 31 31 31 31 31 31 31 31 31 32 32 32 32 32 32 31 31 32 32 32 31 30 30 29 29 29 29 29 29 29 29
33 33 33 33 33 33 33 33 33 33 33 32 33 33 33 33 32 32 32 32 33 33 33 32 32 32 32 32 32 33 33 32 31 31 31 30 30 30 30 29 30 30 30
34 34 34 34 34 34 34 33 34 34 34 34 34 34 34 34 34 34 34 34 34 35 34 33 33 33 34 34 34 34 33 33 32 31 31 31 30 31 30 30 31 31 31
35 36 36 35 35 34 34 34 35 35 35 35 35 35 35 35 35 35 35 35 35 35 35 35 34 34 34 35 35 34 34 33 33 31 30 31 31 31 30 30 31 31 31
Wind_Direction
294 296 297 296 294 293 295 296 296 295 295 295 291 286 282 280 280 280 280 279 279 276 273 272 274 272 269 268 269 270 271 271 272 270 265 264 267 268 264 261 265 266 264
291 294 294 294 293 294 293 294 295 295 295 294 292 289 287 286 283 282 280 279 278 277 275 271 269 270 268 265 265 268 267 270 270 271 270 268 266 269 263 261 263 264 263
290 292 293 293 294 295 295 295 295 296 294 293 292 290 287 284 284 283 280 278 277 276 276 276 275 269 267 264 263 265 265 267 268 267 266 266 265 268 262 263 263 263 263
289 291 292 292 293 294 294 295 295 294 293 292 292 290 288 286 285 284 279 276 275 275 274 275 276 271 269 266 266 267 267 268 267 269 267 265 264 265 260 260 260 261 260
290 292 293 293 293 292 292 294 293 292 292 292 291 289 287 285 285 285 280 276 275 275 275 273 272 271 270 269 268 267 268 270 270 270 268 266 265 264 263 263 261 260 259
292 294 294 294 292 292 292 293 293 292 291 290 289 287 284 283 283 283 282 279 277 275 275 274 272 270 269 267 267 266 268 270 270 270 271 270 267 265 265 263 261 262 262
291 293 294 294 294 294 293 292 292 292 290 289 288 284 281 280 279 278 279 278 277 276 275 273 272 270 269 266 266 266 267 268 269 270 271 271 270 268 266 264 262 260 261
292 294 296 296 295 295 294 292 292 291 289 287 285 282 279 277 275 273 274 275 275 276 275 273 270 269 268 266 266 266 266 267 267 270 271 269 269 270 267 265 265 265 263
292 294 297 298 297 297 297 296 293 291 290 287 284 282 278 275 273 273 272 272 273 273 273 273 272 269 267 266 266 267 266 267 269 268 269 269 270 270 268 267 267 268 266
294 296 298 298 299 299 299 298 296 294 292 289 287 283 279 275 271 272 272 272 270 270 271 270 270 268 267 266 265 265 265 267 268 267 265 267 268 270 270 269 268 267 265
296 297 298 298 298 299 299 298 298 296 294 291 288 285 281 275 271 270 269 270 268 268 269 268 267 268 267 266 265 263 264 265 266 266 267 268 269 269 270 268 269 269 267
294 295 296 297 297 298 298 298 298 295 294 293 290 285 281 277 272 270 267 266 266 267 267 267 266 268 268 267 266 265 264 265 266 267 268 268 268 268 269 269 269 269 269
292 294 295 295 296 298 297 297 299 297 296 294 291 286 282 278 272 269 268 265 264 265 265 265 266 267 267 266 266 265 265 265 265 266 267 267 267 268 268 267 267 268 268
293 293 293 295 296 296 297 297 298 297 296 294 291 286 282 277 273 272 270 266 264 263 262 262 264 265 264 264 265 264 264 264 264 263 265 266 268 269 267 265 266 265 265
292 292 292 294 295 294 295 295 295 295 293 291 290 288 286 280 276 274 273 267 265 262 261 262 263 264 265 265 265 264 264 263 264 263 264 264 267 267 267 267 265 263 262
291 291 292 293 294 293 293 293 293 292 291 289 289 287 285 282 277 277 277 271 268 266 264 261 262 263 266 267 266 265 264 262 264 263 263 264 266 266 267 267 265 263 261
291 292 293 292 292 292 292 292 293 292 289 288 287 285 283 281 278 277 278 273 270 268 266 266 265 265 267 266 264 264 264 263 264 263 262 264 265 265 267 267 266 264 262
291 293 294 291 290 291 291 291 291 291 289 288 287 285 284 282 279 278 278 274 270 267 268 268 267 266 265 265 265 265 265 265 266 264 263 263 265 266 267 267 265 264 262
291 292 293 291 290 291 292 291 290 290 289 288 287 286 284 283 281 279 278 275 270 268 268 269 268 266 265 265 266 267 266 266 267 267 265 264 264 266 267 268 266 264 263
291 292 292 291 290 291 292 291 289 289 289 288 288 288 286 283 281 278 277 273 270 269 268 268 267 268 267 265 266 266 265 265 266 266 266 264 265 266 267 267 266 265 263
290 291 290 290 290 290 290 290 289 289 288 287 287 286 285 284 281 278 275 271 270 270 270 269 269 268 267 266 266 266 266 265 265 266 265 263 264 265 265 265 264 263 262
288 289 290 291 290 289 288 287 288 288 287 286 285 285 284 282 281 279 276 273 271 270 270 270 271 270 269 268 265 266 267 266 265 265 264 263 262 263 263 262 261 260 260
287 288 289 290 291 288 286 286 287 287 287 287 286 285 284 283 281 280 278 276 273 271 271 272 272 272 270 269 268 268 268 267 267 266 264 263 261 260 259 259 260 260 260
286 288 288 289 290 289 286 285 285 286 286 286 285 284 283 282 281 279 279 277 275 272 271 271 271 272 270 269 268 268 268 267 267 266 265 264 261 260 259 259 259 259 260
286 286 288 289 289 288 287 286 285 285 285 286 286 285 283 281 280 280 279 278 276 274 271 270 271 270 270 270 268 268 267 268 267 266 264 263 262 261 259 259 259 259 259
284 285 287 287 288 287 286 286 286 285 285 285 285 284 283 282 280 280 279 278 276 274 271 269 270 270 269 269 267 267 266 266 266 265 264 263 262 262 261 261 259 258 258